This is the latest recevied weather packets stored in our database for station/object KU9TRY. If no packets are shown the sender has not sent any weather packets the latest 10 day(s).
| Time | Temp. | Humidity | Pressure | Rain* | Wind** | Luminosity | Snow |
|---|---|---|---|---|---|---|---|
| 1787955934 | 28.89° C | 53% | 1016.7 hPa | 0 mm | - | 37 W/m² | - |
| 1787955630 | 29.44° C | 52% | 1016.8 hPa | 0 mm | - | 38 W/m² | - |
| 1787955326 | 30.56° C | 49% | 1016.8 hPa | 0 mm | - | 38 W/m² | - |
| 1787955024 | 30.56° C | 46% | 1016.8 hPa | 0 mm | - | 39 W/m² | - |
| 1787954720 | 30.56° C | 47% | 1016.7 hPa | 0 mm | - | 40 W/m² | - |
| 1787954416 | 30.56° C | 46% | 1016.8 hPa | 0 mm | - | 42 W/m² | - |
| 1787954115 | 30° C | 48% | 1016.8 hPa | 0 mm | - | 44 W/m² | - |
| 1787953814 | 30° C | 51% | 1016.8 hPa | 0 mm | - | 59 W/m² | - |
| 1787953509 | 30.56° C | 50% | 1016.7 hPa | 0 mm | - | 55 W/m² | - |
| 1787953209 | 30° C | 48% | 1016.8 hPa | 0 mm | - | 49 W/m² | - |
| 1787952906 | 30.56° C | 50% | 1016.7 hPa | 0 mm | - | 47 W/m² | - |
| 1787952601 | 30.56° C | 45% | 1016.9 hPa | 0 mm | - | 46 W/m² | - |
| 1787952300 | 30.56° C | 44% | 1016.8 hPa | 0 mm | - | 47 W/m² | - |
| 1787951997 | 30.56° C | 44% | 1017 hPa | 0 mm | - | 46 W/m² | - |
| 1787951697 | 30.56° C | 45% | 1017 hPa | 0 mm | - | 49 W/m² | - |
| 1787951393 | 30.56° C | 47% | 1016.9 hPa | 0 mm | - | 50 W/m² | - |
| 1787951088 | 30.56° C | 47% | 1017 hPa | 0 mm | - | 52 W/m² | - |
| 1787950783 | 31.11° C | 45% | 1017 hPa | 0 mm | - | 55 W/m² | - |
| 1787950479 | 31.11° C | 44% | 1016.8 hPa | 0 mm | - | 61 W/m² | - |
| 1787950176 | 31.67° C | 44% | 1017.1 hPa | 0 mm | - | 73 W/m² | - |
| 1787949872 | 31.67° C | 44% | 1017 hPa | 0 mm | - | 87 W/m² | - |
| 1787949572 | 31.11° C | 44% | 1016.9 hPa | 0 mm | - | 92 W/m² | - |
| 1787949266 | 31.67° C | 45% | 1017.1 hPa | 0 mm | - | 90 W/m² | - |
| 1787948961 | 31.67° C | 43% | 1017.1 hPa | 0 mm | - | 88 W/m² | - |
| 1787948657 | 31.67° C | 44% | 1017.2 hPa | 0 mm | - | 101 W/m² | - |
* Rain latest hour (hover to see other rain measurements)
** Current wind speed in m/s (hover to see current wind gust speed)